Temperature
18 18 18 19 18 18 19 19 19 19 19 19 19 19 19 19 19 19 19 19 18 19 18 18 18 18 18 18 18 18 18 18 18 18 18 18 18 18 18 18 17 17 17
19 18 18 19 19 19 19 19 19 19 19 19 19 19 19 19 19 19 19 18 18 19 18 18 18 18 18 18 18 18 18 18 18 18 18 18 18 17 17 17 17 17 17
19 18 18 19 19 19 19 19 19 19 19 19 19 19 19 18 19 19 19 18 18 18 18 18 18 18 18 18 18 18 18 18 17 17 17 17 17 17 17 17 17 17 17
19 19 18 19 19 19 19 19 19 18 18 19 19 19 18 18 18 18 18 18 18 18 18 18 18 18 18 18 18 18 18 17 17 17 17 17 17 17 17 17 17 17 17
19 19 19 19 19 19 19 19 18 18 18 18 18 18 18 18 18 18 18 18 18 18 18 18 18 18 18 18 18 18 17 17 17 17 17 17 17 17 17 17 17 17 17
19 19 19 19 19 19 19 18 18 18 18 18 18 18 18 18 18 18 18 18 18 18 18 18 18 18 18 18 18 17 17 17 17 17 17 17 17 17 17 17 17 17 17
19 19 19 19 19 19 19 19 19 18 18 18 18 18 18 18 18 18 18 18 18 18 18 18 18 18 18 18 18 17 17 17 17 17 17 17 17 17 17 17 17 17 17
19 19 19 19 19 19 19 19 19 19 19 19 18 18 18 18 18 18 18 18 18 18 18 18 18 18 18 18 18 17 17 17 17 17 17 17 17 17 17 17 17 17 17
19 19 19 19 19 19 19 19 19 19 19 19 18 18 18 18 18 18 18 18 18 18 18 18 18 18 18 18 18 17 17 17 17 17 17 17 17 18 17 17 18 18 17
19 19 19 19 19 19 19 19 19 19 19 19 18 18 18 18 18 18 18 18 18 18 18 18 18 18 18 18 18 17 17 17 17 18 18 18 18 18 18 18 18 17 17
19 19 19 19 19 19 19 19 19 19 19 19 18 18 18 18 18 18 18 18 18 18 18 18 18 18 18 18 18 18 18 18 18 18 18 18 18 18 18 18 18 18 17
19 19 19 19 19 19 19 19 19 19 19 19 18 18 18 18 18 18 18 18 18 18 18 18 18 18 18 18 18 18 18 18 18 18 18 18 18 18 18 18 18 18 18
20 19 19 19 19 19 19 19 19 19 18 18 18 18 18 18 18 18 18 18 18 18 18 18 18 18 18 18 18 18 18 18 18 18 18 18 18 18 18 18 18 18 18
20 19 19 19 19 19 19 19 19 19 19 18 18 18 18 18 18 18 18 18 18 18 18 18 18 18 18 18 18 18 18 18 18 18 18 18 18 18 18 18 18 18 18
20 20 19 19 19 19 19 19 19 19 19 19 18 18 18 18 18 18 18 18 18 18 18 18 18 18 18 18 18 18 18 18 18 18 18 18 18 18 18 18 18 18 18
20 20 20 19 19 19 19 19 19 19 19 19 19 18 18 18 18 18 18 18 18 18 18 18 18 18 18 18 18 18 18 18 18 18 18 18 18 18 18 18 18 18 18
21 20 20 20 19 19 19 19 19 19 19 19 19 18 18 18 18 18 18 18 18 18 18 18 18 18 18 18 18 18 18 18 18 18 18 18 18 18 18 18 18 18 18
21 20 20 20 20 19 19 19 19 19 19 19 19 18 18 18 18 18 18 18 18 18 18 18 18 18 18 18 18 18 18 18 18 18 18 18 18 18 18 18 18 18 18
21 21 20 20 20 20 19 19 19 19 19 19 19 19 19 19 18 18 19 18 18 18 18 18 18 18 18 18 18 18 18 18 18 18 18 18 18 18 18 18 18 18 18
21 21 21 20 20 20 20 19 19 19 19 19 19 19 19 19 19 19 19 18 18 18 18 18 18 18 18 18 18 18 18 18 18 18 18 18 18 18 18 18 18 18 18
21 21 21 20 20 20 20 19 19 19 19 19 19 19 19 19 19 19 19 18 18 18 18 18 18 18 18 18 18 18 19 19 19 19 19 18 18 18 18 18 18 18 18
22 21 21 21 20 20 20 20 20 19 19 19 19 19 19 19 19 19 19 19 19 18 18 18 18 18 18 18 18 18 18 19 19 19 19 18 18 18 18 18 18 18 18
22 22 21 21 21 21 20 20 20 19 19 19 19 19 19 19 19 19 19 19 19 19 18 18 18 18 18 18 18 18 18 18 18 19 19 19 18 18 18 18 18 18 18
23 22 22 21 21 21 20 20 20 20 20 20 19 19 19 19 19 19 19 19 19 19 19 18 18 18 18 18 18 18 18 18 18 18 18 18 18 18 18 18 18 18 18
23 23 22 22 21 21 21 20 20 20 20 20 20 19 19 19 19 19 19 19 19 19 19 18 18 18 18 18 18 18 18 18 18 18 18 18 18 18 18 18 18 18 18
23 22 22 22 22 21 21 21 20 20 20 20 20 20 19 19 19 19 19 19 19 19 19 18 18 18 18 18 18 18 18 18 18 18 18 18 18 18 18 18 18 18 18
Wind_Speed
3 7 15 17 18 20 20 20 20 21 21 21 22 22 22 22 21 20 19 19 18 17 16 15 15 15 14 14 14 14 15 15 15 15 15 15 15 15 15 15 15 14 16
7 11 17 18 19 20 20 21 20 20 21 20 20 20 20 20 19 19 18 17 16 16 15 14 13 13 13 13 13 13 13 13 13 14 14 14 13 14 14 14 14 13 15
10 12 16 18 19 20 20 20 20 20 20 20 19 19 18 18 17 17 16 16 15 14 14 13 12 12 12 11 11 11 11 11 12 12 12 11 12 13 13 14 15 15 14
11 13 16 19 19 20 20 20 20 19 19 19 18 17 17 16 16 15 15 15 14 13 12 12 12 11 10 10 10 9 9 10 10 10 9 9 9 12 13 14 14 13 13
10 13 17 20 20 20 19 19 19 19 18 18 17 17 16 15 15 14 14 13 12 12 11 11 11 10 9 9 8 7 7 7 7 7 7 8 9 12 13 13 13 13 13
10 13 17 20 19 19 19 19 18 18 18 17 16 16 15 14 14 13 13 12 11 11 10 10 9 8 8 7 6 6 5 5 6 6 7 8 9 12 12 12 13 12 12
10 12 16 19 19 18 18 18 17 17 17 16 15 14 14 13 13 12 11 11 10 10 9 9 8 7 6 6 5 4 3 3 6 6 7 7 10 12 12 12 12 12 12
12 11 15 18 18 17 17 17 16 16 15 15 14 14 13 13 12 11 11 10 10 9 8 8 8 6 5 5 3 2 1 3 5 6 7 8 10 12 12 12 12 12 11
12 10 10 14 15 16 16 16 16 15 15 14 14 13 13 12 12 11 10 10 9 8 8 7 7 6 5 4 3 2 1 3 3 5 7 8 11 12 12 12 12 12 11
10 9 8 10 11 13 13 15 15 14 14 13 13 12 12 11 11 10 10 9 9 8 7 7 6 5 4 4 4 3 2 2 2 4 6 9 12 13 12 12 12 12 11
11 8 8 8 9 11 11 13 13 13 13 12 11 11 10 8 8 9 9 10 9 8 8 7 6 5 5 5 5 4 2 3 4 5 7 10 13 14 13 12 12 12 12
12 10 9 8 8 9 10 10 10 10 10 9 9 9 8 8 8 8 9 10 9 9 8 8 7 7 6 5 5 4 3 4 4 6 9 12 14 14 14 13 13 13 12
14 13 11 10 9 8 6 8 7 7 8 8 9 9 8 7 7 7 7 7 8 8 7 7 6 6 6 6 5 5 6 5 5 7 10 14 15 15 15 14 14 14 13
14 14 12 11 9 8 8 7 6 5 6 6 9 10 8 4 4 5 5 6 6 6 5 5 5 6 7 8 7 6 6 6 7 8 11 15 16 16 16 16 16 15 15
14 13 13 12 10 8 7 6 6 6 6 8 9 10 9 5 4 4 4 6 6 6 6 5 5 5 5 6 6 6 5 7 7 9 10 14 16 16 17 17 17 17 16
13 13 12 12 10 9 7 6 5 7 7 8 8 10 10 8 5 5 4 4 5 7 7 6 5 4 4 4 4 4 6 7 7 9 10 13 16 17 17 17 17 17 17
14 13 12 12 10 9 9 7 6 7 7 6 7 10 10 9 7 6 4 4 4 6 6 4 4 3 3 3 3 4 4 5 7 8 10 11 13 16 17 18 18 18 18
14 13 13 13 11 10 8 6 5 6 6 6 8 9 9 10 9 6 4 4 5 5 4 3 2 2 2 2 3 3 3 4 6 8 8 10 11 12 15 18 19 19 19
15 14 13 11 11 10 8 6 4 5 5 6 7 7 8 9 10 6 4 4 5 3 2 3 2 2 2 3 3 4 3 4 4 6 6 9 11 12 13 16 19 20 19
14 14 13 11 11 9 7 4 3 3 4 4 5 7 8 8 9 7 4 4 4 3 2 2 2 2 2 3 3 3 3 4 3 4 5 6 8 11 12 12 13 15 18
13 12 12 11 11 8 6 5 4 4 4 3 4 7 8 8 8 6 4 3 3 3 4 4 2 2 2 1 0 2 3 3 3 3 3 3 5 8 9 10 10 10 11
15 14 12 12 12 10 7 6 4 4 3 4 3 5 8 8 7 6 4 4 4 3 3 3 3 2 1 1 2 0 2 4 3 3 2 2 3 3 4 8 8 8 9
16 16 14 12 11 11 9 5 4 2 1 2 3 3 5 7 7 6 5 4 4 4 3 4 4 4 2 2 2 3 2 3 3 3 2 2 2 1 2 3 5 7 8
17 15 13 13 12 11 10 8 7 6 6 6 5 5 5 6 6 6 5 5 5 4 4 4 4 3 3 2 2 2 3 3 2 2 3 3 2 2 2 2 2 4 6
16 15 13 13 12 11 10 10 9 7 6 4 4 5 5 5 5 6 6 5 5 4 4 4 3 4 3 3 2 2 2 1 2 2 3 3 2 2 2 2 2 2 5
13 13 13 13 13 12 12 10 10 9 7 6 6 6 5 4 4 5 5 5 5 4 5 5 4 5 4 4 3 3 2 2 3 3 3 3 2 3 2 1 2 2 4
Wind_Direction
135 136 130 126 122 119 115 112 110 109 109 109 109 110 111 112 114 115 116 116 116 114 111 108 107 106 104 103 104 106 109 110 111 112 113 113 112 113 115 114 114 114 116
141 138 132 127 124 121 118 115 112 112 112 112 112 113 114 115 116 117 117 117 116 114 112 111 109 109 108 107 106 108 110 113 113 114 114 114 115 115 118 120 119 122 120
133 135 131 127 125 123 121 119 116 115 115 115 115 115 116 117 117 118 119 119 119 117 116 115 114 113 113 111 111 111 113 113 114 114 112 110 115 119 121 124 125 124 124
135 135 133 129 128 127 124 122 121 119 118 118 118 119 119 119 120 121 122 122 122 122 122 122 122 121 119 118 117 115 117 116 116 117 116 118 123 126 125 126 128 128 130
130 135 136 133 130 129 128 126 126 125 124 123 122 123 124 125 125 126 126 126 126 126 127 128 128 127 125 125 122 118 118 115 115 123 125 128 131 134 134 134 133 132 134
128 133 138 136 133 132 132 131 131 130 129 129 128 129 131 133 132 132 130 129 129 131 132 133 134 133 132 133 128 121 113 107 115 127 131 138 142 146 144 142 140 139 139
133 137 140 139 138 137 135 135 136 135 135 135 136 136 137 138 137 137 135 135 135 137 140 142 142 140 142 145 141 131 121 122 128 134 140 144 150 154 153 149 147 145 146
137 138 143 143 141 140 139 140 141 142 141 141 142 143 143 144 144 144 141 141 143 145 147 148 151 154 161 165 168 156 146 144 138 141 148 157 159 159 158 155 154 154 153
138 137 141 146 145 143 142 143 146 148 147 147 147 147 148 149 150 151 151 151 153 155 159 162 165 170 182 190 200 211 179 152 138 154 156 160 163 163 164 163 161 160 162
139 141 142 144 143 146 148 148 150 153 153 153 153 153 153 155 158 160 163 164 167 169 173 178 185 192 205 215 221 219 192 174 175 172 167 174 175 175 173 171 171 170 169
148 153 152 149 150 151 152 156 157 158 160 161 162 160 159 159 163 170 176 178 180 185 190 196 203 214 227 235 237 229 214 199 190 190 187 188 185 184 182 180 180 179 179
164 167 166 163 161 161 163 157 161 163 166 167 168 168 168 168 177 183 189 193 194 198 204 209 217 225 237 244 246 235 220 207 199 203 201 195 191 190 189 188 185 185 186
170 170 171 173 171 169 164 159 165 168 171 177 181 181 179 180 186 188 190 197 200 206 210 216 227 230 234 239 240 232 223 216 206 209 207 200 196 196 195 194 192 193 194
170 175 174 174 172 174 167 169 170 174 181 186 192 190 181 180 185 186 188 191 197 203 203 215 225 229 234 241 233 223 214 213 209 211 209 205 203 202 201 200 200 201 202
170 175 176 175 172 171 167 177 175 182 188 192 192 192 187 182 187 191 194 199 203 204 205 213 222 225 234 240 234 215 210 208 206 208 208 208 208 208 207 207 208 208 208
169 168 169 170 170 166 169 176 175 180 185 187 192 196 193 187 183 184 187 194 203 203 204 205 211 217 228 233 242 224 209 208 209 209 211 214 215 213 213 213 214 215 215
169 166 168 170 169 169 172 178 177 184 182 186 194 197 195 189 183 179 185 197 204 202 200 203 215 210 224 230 245 241 221 215 210 209 212 214 219 220 219 217 217 219 219
168 166 172 173 171 174 176 181 180 184 183 190 192 194 197 194 189 180 188 204 202 192 187 191 201 211 241 241 246 253 240 226 218 212 210 215 217 222 226 225 222 222 222
170 169 172 170 173 179 179 178 178 178 182 187 187 188 195 195 191 185 194 204 196 183 189 205 197 196 226 246 248 252 252 243 235 223 211 210 212 219 225 229 228 226 226
172 171 171 171 176 176 173 172 172 175 189 183 183 188 191 190 189 186 194 202 186 173 189 199 198 205 216 232 260 272 265 255 246 233 227 217 218 221 224 224 226 231 231
170 170 170 172 177 172 171 175 178 185 190 187 191 191 190 190 185 176 189 191 185 185 200 198 190 209 242 204 347 320 315 291 262 261 248 231 228 224 219 217 218 221 227
176 176 174 176 178 178 182 181 179 172 185 190 196 190 195 194 189 182 177 184 188 189 195 193 178 176 240 178 156 101 335 334 317 280 266 246 251 231 220 219 213 212 216
182 181 181 180 180 181 179 170 166 144 156 192 204 200 204 195 192 184 178 178 184 185 200 206 186 173 204 237 185 161 169 242 302 318 291 271 264 247 240 209 204 210 212
187 184 181 180 181 183 178 176 175 182 192 202 199 199 205 198 192 190 183 181 185 185 194 209 193 184 176 215 245 218 197 181 190 298 319 305 290 259 239 208 182 192 198
184 183 183 181 183 184 183 184 184 194 199 195 189 193 204 209 203 197 192 189 195 196 201 205 199 195 187 193 208 222 229 217 193 194 271 303 319 286 243 214 189 186 195
182 183 181 182 187 187 186 186 190 195 194 189 193 197 202 208 213 211 201 199 202 202 206 209 207 205 202 199 205 198 193 201 208 197 229 259 271 282 272 234 204 192 195
Height
1516 1516 1517 1518 1519 1520 1521 1522 1523 1525 1527 1529 1530 1532 1533 1535 1537 1539 1540 1542 1543 1544 1546 1547 1548 1549 1550 1551 1551 1552 1553 1553 1554 1554 1554 1555 1555 1556 1556 1557 1557 1557 1558
1516 1517 1519 1520 1521 1522 1523 1525 1526 1527 1529 1531 1533 1535 1536 1538 1539 1541 1543 1544 1545 1546 1547 1548 1549 1550 1551 1552 1553 1554 1554 1555 1555 1556 1556 1556 1557 1557 1558 1558 1559 1559 1560
1517 1519 1520 1521 1522 1524 1525 1526 1528 1530 1531 1533 1535 1537 1538 1540 1542 1543 1545 1546 1547 1548 1549 1550 1551 1552 1553 1554 1555 1555 1555 1556 1556 1557 1557 1558 1558 1559 1559 1560 1560 1561 1561
1519 1520 1521 1523 1524 1525 1527 1528 1530 1532 1534 1535 1537 1539 1540 1542 1543 1545 1546 1547 1548 1549 1550 1551 1552 1553 1554 1555 1556 1556 1557 1557 1557 1558 1559 1559 1560 1560 1561 1561 1561 1562 1563
1520 1522 1523 1524 1526 1527 1529 1531 1532 1534 1536 1537 1539 1540 1542 1543 1544 1546 1547 1548 1549 1550 1551 1552 1553 1554 1555 1556 1557 1557 1558 1558 1559 1559 1560 1560 1561 1561 1562 1562 1563 1563 1564
1521 1523 1525 1526 1528 1529 1531 1532 1534 1535 1537 1539 1541 1542 1543 1545 1546 1547 1548 1549 1550 1551 1552 1553 1554 1555 1556 1557 1558 1559 1559 1559 1560 1560 1561 1561 1562 1562 1563 1563 1564 1564 1565
1522 1524 1526 1528 1529 1531 1532 1534 1535 1537 1539 1540 1542 1543 1544 1546 1547 1548 1549 1550 1551 1552 1553 1554 1555 1556 1557 1558 1559 1559 1560 1560 1561 1561 1561 1562 1563 1563 1564 1564 1564 1565 1566
1524 1526 1528 1530 1531 1532 1534 1535 1537 1538 1540 1542 1543 1544 1546 1547 1548 1549 1550 1551 1552 1553 1554 1555 1556 1557 1558 1559 1559 1560 1561 1561 1562 1562 1562 1563 1563 1564 1564 1565 1565 1566 1566
1526 1527 1529 1531 1532 1534 1535 1537 1538 1540 1541 1543 1544 1545 1547 1548 1549 1550 1551 1552 1553 1554 1555 1556 1557 1558 1558 1559 1560 1560 1561 1562 1562 1562 1563 1563 1564 1564 1565 1565 1566 1566 1567
1527 1528 1530 1532 1533 1535 1536 1538 1539 1541 1542 1544 1545 1546 1548 1549 1550 1551 1552 1553 1554 1555 1555 1556 1557 1558 1559 1559 1560 1561 1562 1562 1562 1562 1563 1563 1564 1564 1565 1565 1566 1566 1567
1528 1529 1531 1533 1534 1536 1537 1539 1540 1542 1543 1545 1546 1547 1548 1549 1550 1551 1552 1554 1554 1555 1556 1557 1557 1558 1559 1560 1560 1561 1562 1562 1562 1562 1563 1563 1564 1564 1565 1565 1566 1566 1567
1527 1529 1531 1533 1534 1536 1538 1540 1541 1542 1544 1545 1546 1548 1549 1550 1551 1552 1553 1554 1555 1555 1556 1557 1558 1558 1559 1560 1560 1561 1561 1562 1562 1562 1563 1563 1563 1564 1564 1565 1565 1566 1566
1527 1529 1531 1533 1535 1536 1538 1540 1542 1543 1545 1546 1547 1548 1549 1550 1551 1552 1553 1554 1555 1555 1556 1557 1558 1558 1559 1560 1560 1560 1561 1561 1562 1562 1562 1562 1563 1563 1563 1564 1564 1565 1565
1527 1529 1531 1533 1535 1537 1539 1540 1542 1543 1545 1546 1547 1548 1549 1550 1551 1552 1553 1554 1554 1555 1556 1557 1557 1558 1559 1559 1559 1560 1560 1561 1561 1561 1561 1562 1562 1562 1562 1563 1563 1564 1564
1526 1528 1531 1533 1535 1537 1539 1540 1542 1543 1545 1546 1547 1548 1549 1550 1551 1552 1553 1553 1554 1555 1555 1556 1556 1557 1558 1558 1558 1559 1559 1560 1560 1560 1561 1561 1561 1561 1561 1562 1562 1563 1563
1525 1528 1530 1532 1534 1536 1538 1540 1541 1543 1544 1546 1547 1548 1549 1550 1551 1551 1552 1553 1553 1554 1555 1555 1556 1556 1557 1557 1557 1558 1558 1559 1559 1559 1559 1560 1560 1560 1560 1560 1561 1561 1561
1524 1527 1530 1532 1534 1536 1538 1540 1541 1542 1544 1545 1546 1547 1549 1550 1551 1551 1552 1552 1553 1553 1554 1554 1555 1555 1556 1556 1557 1557 1557 1557 1558 1558 1558 1558 1558 1558 1559 1559 1559 1559 1560
1523 1526 1529 1531 1534 1536 1537 1539 1541 1542 1543 1544 1545 1546 1548 1549 1550 1551 1551 1551 1552 1552 1552 1553 1553 1554 1555 1555 1555 1556 1556 1556 1556 1556 1556 1556 1556 1556 1556 1557 1557 1557 1558
1522 1525 1528 1530 1532 1535 1537 1539 1540 1541 1542 1543 1544 1545 1547 1547 1548 1549 1550 1550 1551 1551 1551 1552 1552 1553 1553 1554 1554 1554 1554 1554 1554 1554 1554 1554 1554 1554 1554 1555 1555 1555 1556
1521 1523 1526 1529 1531 1534 1536 1538 1539 1540 1541 1542 1543 1544 1545 1546 1547 1547 1548 1549 1549 1549 1550 1550 1551 1552 1552 1553 1553 1553 1553 1553 1552 1552 1552 1552 1552 1553 1552 1553 1553 1553 1554
1519 1522 1524 1526 1529 1531 1533 1535 1537 1538 1540 1541 1542 1543 1544 1545 1546 1546 1547 1547 1548 1548 1548 1549 1550 1550 1551 1551 1551 1551 1551 1551 1550 1550 1550 1550 1550 1550 1551 1551 1551 1551 1551
1516 1519 1522 1524 1527 1529 1531 1533 1536 1537 1538 1540 1541 1541 1542 1543 1544 1545 1545 1546 1546 1546 1547 1547 1548 1548 1549 1550 1550 1550 1549 1550 1548 1548 1548 1548 1548 1549 1548 1549 1549 1549 1549
1513 1516 1518 1521 1524 1527 1529 1532 1534 1536 1537 1538 1538 1539 1540 1541 1542 1543 1543 1544 1544 1545 1545 1546 1546 1547 1547 1548 1548 1549 1548 1547 1547 1546 1546 1546 1546 1546 1546 1546 1546 1547 1547
1509 1512 1516 1519 1522 1524 1527 1529 1531 1532 1533 1534 1536 1537 1539 1540 1540 1541 1541 1542 1542 1543 1543 1544 1544 1545 1545 1546 1546 1547 1547 1547 1546 1545 1545 1544 1544 1544 1544 1544 1544 1544 1544
1506 1509 1513 1516 1519 1522 1524 1526 1528 1530 1531 1533 1534 1536 1537 1537 1538 1539 1539 1540 1540 1541 1541 1542 1542 1543 1543 1544 1544 1544 1545 1545 1545 1544 1543 1542 1542 1542 1542 1542 1542 1542 1541
1504 1507 1510 1513 1515 1518 1521 1523 1525 1527 1529 1530 1531 1532 1533 1534 1535 1536 1537 1537 1538 1538 1539 1539 1540 1540 1540 1541 1542 1542 1542 1542 1542 1542 1541 1540 1540 1540 1540 1540 1540 1539 1539